Satellite-Ground Cal/Val Site Overpasses Predictions

Prediction of Satellite NPP Overpassing Cal/Val Site: Antarctic Dome C

Ground Cal/Val Site Location: Latitude: -75.10, Longitude: 123.35; Satellite-Ground Site NADIR distance within 100 km.

Table of predicted overpasses for the next 14.0 days since TLE Epoch: 12/14/2018
Interval Starting Time Ending Time Minimum Distance Time Minimum Distance (km)
1 12/15/2018 07:31:53 12/15/2018 07:32:22 12/15/2018 07:32:07 3.32
2 12/18/2018 14:55:19 12/18/2018 14:55:47 12/18/2018 14:55:33 22.33
3 12/19/2018 14:36:37 12/19/2018 14:36:52 12/19/2018 14:36:44 84.77
4 12/20/2018 07:38:09 12/20/2018 07:38:36 12/20/2018 07:38:22 39.18
5 12/21/2018 07:19:23 12/21/2018 07:19:43 12/21/2018 07:19:33 70.72
6 12/23/2018 15:01:38 12/23/2018 15:02:01 12/23/2018 15:01:49 59.55
7 12/24/2018 14:42:46 12/24/2018 14:43:12 12/24/2018 14:42:59 49.72
8 12/25/2018 07:44:28 12/25/2018 07:44:48 12/25/2018 07:44:38 74.41
9 12/26/2018 07:25:34 12/26/2018 07:26:02 12/26/2018 07:25:48 33.32


NCC Satellite Cal/Val Overpasses Prediction Service
